IZ8XTV-13 Weather Reports


time (UTC)temp
F
wind
direction
speed
knots
gust
knots
rain 1hr
in
rain 24hr
in
rain mn
in
humidity
%
barometer
mb
20260507030545 60 0 0.0 0.0 0.00 0.00 0.00 99 1014.1
20260507025534 60 0 0.0 0.0 0.00 0.00 0.00 99 1014.1
20260507024521 60 0 0.0 0.0 0.00 0.00 0.00 99 1014.1
20260507023510 60 0 0.0 0.0 0.00 0.00 0.00 99 1014.7
20260507022458 60 0 0.0 0.0 0.00 0.00 0.00 99 1014.5
20260507021444 60 0 0.0 0.0 0.00 0.00 0.00 99 1014.7
20260507020433 60 0 0.0 0.0 0.00 0.00 0.00 99 1014.5
20260507015422 60 0 0.0 0.0 0.00 0.00 0.00 99 1014.3
20260507014410 60 0 0.0 0.0 0.00 0.00 0.00 99 1014.3
20260507013358 60 0 0.0 0.0 0.00 0.00 0.00 99 1014.5
20260507012345 60 0 0.0 0.0 0.00 0.00 0.00 99 1014.4
20260507011334 60 0 0.0 0.0 0.00 0.00 0.00 99 1014.5
20260507010322 60 0 0.0 0.0 0.00 0.00 0.00 99 1014.4
20260507005310 60 0 0.0 0.0 0.00 0.00 0.00 99 1014.5
20260507004258 60 0 0.0 0.0 0.00 0.00 0.00 99 1014.4
20260507003246 60 0 0.0 0.0 0.00 0.00 0.00 99 1014.5
20260507002235 60 0 0.0 0.0 0.00 0.00 0.00 99 1014.8
20260507001223 61 0 0.0 0.0 0.00 0.00 0.00 99 1014.8
20260507000212 61 0 0.0 0.0 0.00 0.00 0.00 99 1014.9
20260506235159 61 0 0.0 0.0 0.00 0.00 0.00 99 1015.0
20260506234146 61 0 0.0 0.0 0.00 0.00 0.00 99 1015.0
20260506233134 61 0 0.0 0.0 0.00 0.00 0.00 99 1015.1
20260506232122 61 0 0.0 0.0 0.00 0.00 0.00 99 1015.2
20260506231109 61 0 0.0 0.0 0.00 0.00 0.00 99 1015.2
20260506230058 62 0 0.0 0.0 0.00 0.00 0.00 99 1015.4
20260506225046 62 0 0.0 0.0 0.00 0.00 0.00 99 1015.6
20260506224035 62 0 0.0 0.0 0.00 0.00 0.00 99 1015.6
20260506223024 62 0 0.0 0.0 0.00 0.00 0.00 99 1015.7
20260506222012 62 0 0.0 0.0 0.00 0.00 0.00 99 1015.8
20260506221000 62 0 0.0 0.0 0.00 0.00 0.00 99 1015.5
20260506215948 63 0 0.0 0.0 0.00 0.00 0.00 99 1015.5
20260506214937 62 0 0.0 0.0 0.00 0.00 0.00 99 1015.6
20260506213925 63 0 0.0 0.0 0.00 0.00 0.00 99 1015.5
20260506212914 64 0 0.0 0.0 0.00 0.00 0.00 98 1015.6
20260506211902 64 0 0.0 0.0 0.00 0.00 0.00 98 1015.6
20260506210849 64 0 0.0 0.0 0.00 0.00 0.00 99 1015.6
20260506205837 64 0 0.0 0.0 0.00 0.00 0.00 99 1015.7
20260506204826 64 0 0.0 0.0 0.00 0.00 0.00 97 1015.9
20260506203813 65 0 0.0 0.0 0.00 0.00 0.00 97 1015.9
20260506202802 65 0 0.0 0.0 0.00 0.00 0.00 95 1016.0
20260506201751 65 0 0.0 0.0 0.00 0.00 0.00 91 1016.1
20260506200738 65 0 0.0 0.0 0.00 0.00 0.00 89 1016.0
20260506195727 65 0 0.0 0.0 0.00 0.00 0.00 88 1016.0
20260506194716 66 0 0.0 0.0 0.00 0.00 0.00 87 1016.2
20260506193705 66 0 0.0 0.0 0.00 0.00 0.00 87 1016.0
20260506192654 67 0 0.0 0.0 0.00 0.00 0.00 87 1015.9
20260506191643 67 0 0.0 0.0 0.00 0.00 0.00 87 1015.7
20260506190632 67 0 0.0 0.0 0.00 0.00 0.00 88 1015.4
20260506185621 67 0 0.0 0.0 0.00 0.00 0.00 88 1015.2
20260506184610 67 0 0.0 0.0 0.00 0.00 0.00 87 1015.0
20260506183559 67 0 0.0 0.0 0.00 0.00 0.00 86 1014.8
20260506182548 68 0 0.0 0.0 0.00 0.00 0.00 84 1014.8
20260506181537 68 0 0.0 0.0 0.00 0.00 0.00 82 1014.8
20260506180526 68 0 0.0 0.0 0.00 0.00 0.00 83 1014.6
20260506175515 69 0 0.0 0.0 0.00 0.00 0.00 83 1014.4
20260506174504 69 0 0.0 0.0 0.00 0.00 0.00 83 1014.5
20260506173453 69 0 0.0 0.0 0.00 0.00 0.00 82 1014.4
20260506172442 70 0 0.0 0.0 0.00 0.00 0.00 82 1014.3
20260506171431 70 0 0.0 0.0 0.00 0.00 0.00 82 1014.3
20260506170420 70 0 0.0 0.0 0.00 0.00 0.00 82 1014.2
20260506165823 71 0 0.0 0.0 0.00 0.00 0.00 82 1014.3
20260506164810 71 0 0.0 0.0 0.00 0.00 0.00 79 1014.3
20260506163759 71 0 0.0 0.0 0.00 0.00 0.00 80 1014.3
20260506162747 72 0 0.0 0.0 0.00 0.00 0.00 79 1014.4
20260506161735 72 0 0.0 0.0 0.00 0.00 0.00 79 1014.3
20260506160723 72 0 0.0 0.0 0.00 0.00 0.00 80 1014.3
20260506155712 73 0 0.0 0.0 0.00 0.00 0.00 79 1014.3
20260506154701 74 0 0.0 0.0 0.00 0.00 0.00 79 1014.3
20260506153650 74 0 0.0 0.0 0.00 0.00 0.00 79 1014.3
20260506152639 74 0 0.0 0.0 0.00 0.00 0.00 78 1014.2
20260506151626 75 0 0.0 0.0 0.00 0.00 0.00 77 1014.1
20260506150615 76 0 0.0 0.0 0.00 0.00 0.00 75 1014.0
20260506145603 76 0 0.0 0.0 0.00 0.00 0.00 74 1013.8
20260506144552 76 0 0.0 0.0 0.00 0.00 0.00 77 1013.9
20260506143541 76 0 0.0 0.0 0.00 0.00 0.00 80 1013.9
20260506142529 77 0 0.0 0.0 0.00 0.00 0.00 78 1014.0
20260506141518 77 0 0.0 0.0 0.00 0.00 0.00 77 1013.9
20260506140506 77 0 0.0 0.0 0.00 0.00 0.00 77 1013.8
20260506135454 78 0 0.0 0.0 0.00 0.00 0.00 76 1014.0
20260506134441 77 0 0.0 0.0 0.00 0.00 0.00 80 1014.2
20260506133429 76 0 0.0 0.0 0.00 0.00 0.00 80 1014.1
20260506132418 78 0 0.0 0.0 0.00 0.00 0.00 76 1014.0
20260506131407 76 0 0.0 0.0 0.00 0.00 0.00 79 1014.2
20260506130356 78 0 0.0 0.0 0.00 0.00 0.00 80 1014.2
20260506125345 77 0 0.0 0.0 0.00 0.00 0.00 80 1014.1
20260506124333 78 0 0.0 0.0 0.00 0.00 0.00 80 1014.0
20260506123322 77 0 0.0 0.0 0.00 0.00 0.00 81 1014.1
20260506122311 77 0 0.0 0.0 0.00 0.00 0.00 82 1014.3
20260506121259 76 0 0.0 0.0 0.00 0.00 0.00 83 1014.2
20260506120248 77 0 0.0 0.0 0.00 0.00 0.00 82 1014.3
20260506115235 79 0 0.0 0.0 0.00 0.00 0.00 81 1014.3
20260506114224 78 0 0.0 0.0 0.00 0.00 0.00 83 1014.2
20260506113212 77 0 0.0 0.0 0.00 0.00 0.00 85 1014.4
20260506112201 76 0 0.0 0.0 0.00 0.00 0.00 87 1014.3
20260506111150 75 0 0.0 0.0 0.00 0.00 0.00 89 1014.2
20260506110138 74 0 0.0 0.0 0.00 0.00 0.00 92 1014.3
20260506105126 75 0 0.0 0.0 0.00 0.00 0.00 90 1014.3
20260506104115 75 0 0.0 0.0 0.00 0.00 0.00 90 1014.3
20260506103104 74 0 0.0 0.0 0.00 0.00 0.00 93 1014.5
20260506102053 73 0 0.0 0.0 0.00 0.00 0.00 93 1014.4
20260506101042 73 0 0.0 0.0 0.00 0.00 0.00 93 1014.7
20260506100031 73 0 0.0 0.0 0.00 0.00 0.00 95 1014.8
20260506095018 71 0 0.0 0.0 0.00 0.00 0.00 97 1014.9
20260506094005 71 0 0.0 0.0 0.00 0.00 0.00 97 1014.9
20260506092954 70 0 0.0 0.0 0.00 0.00 0.00 96 1015.0
20260506091943 71 0 0.0 0.0 0.00 0.00 0.00 95 1014.8
20260506090931 70 0 0.0 0.0 0.00 0.00 0.00 98 1014.9
20260506085919 69 0 0.0 0.0 0.00 0.00 0.00 99 1014.9
20260506084908 68 0 0.0 0.0 0.00 0.00 0.00 99 1015.0
20260506083857 67 0 0.0 0.0 0.00 0.00 0.00 99 1014.9
20260506082844 67 0 0.0 0.0 0.00 0.00 0.00 99 1014.9
20260506081832 67 0 0.0 0.0 0.00 0.00 0.00 99 1015.0
20260506080820 66 0 0.0 0.0 0.00 0.00 0.00 99 1015.0
20260506072433 66 0 0.0 0.0 0.00 0.00 0.00 99 1015.0
20260506071422 65 0 0.0 0.0 0.00 0.00 0.00 99 1015.0
20260506070410 66 0 0.0 0.0 0.00 0.00 0.00 99 1015.0
20260506062321 62 0 0.0 0.0 0.00 0.00 0.00 99 1015.0
20260506061310 61 0 0.0 0.0 0.00 0.00 0.00 99 1014.9
20260506060257 60 0 0.0 0.0 0.00 0.00 0.00 99 1014.8
20260506051200 57 0 0.0 0.0 0.00 0.00 0.00 99 1014.9
20260506050147 57 0 0.0 0.0 0.00 0.00 0.00 99 1014.8
20260506045136 57 0 0.0 0.0 0.00 0.00 0.00 99 1014.7
20260506044125 57 0 0.0 0.0 0.00 0.00 0.00 99 1014.7
20260506043114 57 0 0.0 0.0 0.00 0.00 0.00 99 1014.5
20260506042102 57 0 0.0 0.0 0.00 0.00 0.00 99 1014.4
20260506041052 57 0 0.0 0.0 0.00 0.00 0.00 99 1014.3
20260506040039 57 0 0.0 0.0 0.00 0.00 0.00 99 1014.4
20260506035027 57 0 0.0 0.0 0.00 0.00 0.00 99 1014.4
20260506034015 57 0 0.0 0.0 0.00 0.00 0.00 99 1014.5
20260506033005 57 0 0.0 0.0 0.00 0.00 0.00 99 1014.6
20260506031953 57 0 0.0 0.0 0.00 0.00 0.00 99 1014.6